Location: *
(41.7492°S, 135.4150°W)
Time: 04:02:40
(UTC+00:00)

AO-27 - Pass Details

Date: 03 July 2022
Orbit: 786 x 796 km, 98.9° (Epoch: 14 August)

Event Time Altitude Azimuth Distance (km) Brightness Sun altitude
Rises 15:27:18 0° 33° (NNE) 3,296 11.8 -11.3°
Reaches altitude 10° 15:29:41 10° 39° (NE) 2,374 11.2 -10.9°
Maximum altitude 15:34:41 46° 110° (ESE) 1,071 8.8 -10.0°
Drops below altitude 10° 15:39:43 10° 182° (S) 2,397 9.9 -9.1°
Sets 15:42:08 0° 187° (S) 3,333 10.6 -8.7°
